Cloud_Cover
54 24 14 100 93 64 52 30 29 98 23 60 100 90 40 5 3 5 0 0 0 0 0 0 0 0 9 64 0 0 0 0 0 0 0 0 0 0 0 0 0 0 0 0 0
29 28 47 55 39 78 90 71 93 39 90 89 89 4 2 4 3 0 0 0 0 0 0 0 1 22 100 78 4 0 0 0 0 4 0 0 0 0 0 0 0 0 0 0 0
54 19 7 47 48 81 60 27 74 19 46 2 0 0 1 0 0 0 0 0 0 0 4 3 37 71 100 100 1 0 0 0 0 0 0 0 0 0 0 0 0 0 0 0 0
78 100 100 100 26 8 5 42 99 5 43 0 0 0 0 1 2 0 0 5 5 0 0 0 0 18 65 43 4 0 0 0 0 0 0 0 4 0 0 0 0 0 0 0 0
63 83 100 100 27 100 98 100 99 18 5 1 0 5 10 5 0 0 0 5 5 4 2 5 2 4 5 38 5 0 0 0 0 2 0 0 0 5 0 0 0 0 0 0 0
65 100 100 100 100 100 100 100 100 53 5 5 43 5 7 5 3 4 5 3 5 5 3 0 5 4 9 38 1 1 0 0 0 3 3 0 0 5 0 0 0 0 0 0 0
100 100 100 100 100 100 100 100 97 6 4 22 83 50 36 12 5 5 5 5 5 11 30 5 4 0 2 3 5 5 0 2 1 5 5 4 0 5 4 0 0 0 0 0 0
100 100 100 100 100 100 100 100 100 61 5 20 98 98 44 21 5 5 5 22 27 5 18 5 5 4 5 5 1 4 5 0 5 5 18 1 5 0 4 5 2 0 0 0 0
100 100 100 100 100 100 100 100 100 100 98 68 85 48 67 6 5 5 5 35 6 30 30 10 5 4 2 5 5 5 4 2 5 5 58 7 15 0 0 3 5 0 0 0 0
100 100 100 100 100 100 100 100 100 100 86 96 59 98 95 23 7 11 60 100 100 100 100 92 7 0 0 5 5 4 27 5 5 5 43 5 6 5 0 0 5 5 0 0 0
100 100 100 100 100 100 100 100 100 80 98 65 56 99 48 47 12 100 93 100 100 100 100 100 98 5 5 5 5 5 10 5 5 5 20 76 46 24 5 2 7 94 0 0 0
100 100 100 100 100 100 100 100 100 98 92 66 99 50 32 5 25 98 100 72 24 100 100 100 72 31 5 5 5 5 43 5 5 3 5 5 5 6 8 5 10 88 4 0 0
100 100 100 100 100 100 100 68 100 94 100 96 91 100 86 24 100 100 100 32 26 86 100 100 68 16 5 5 5 5 5 12 5 5 6 4 5 95 59 18 61 89 41 0 0
100 100 100 100 100 100 100 29 97 98 100 100 81 55 100 100 100 100 100 85 78 61 87 96 88 15 5 5 5 5 5 5 5 5 8 5 13 40 100 100 93 100 72 0 0
100 100 100 100 100 100 100 76 100 100 100 100 98 98 100 100 100 100 100 95 49 87 42 71 55 16 5 5 5 5 5 5 5 5 1 4 2 1 100 100 100 80 4 0 0
100 100 100 100 100 100 100 100 100 100 100 100 100 100 100 100 100 100 100 100 100 100 72 7 35 6 5 5 5 5 6 5 5 5 12 0 0 73 90 100 86 7 0 0 0
100 100 100 100 100 100 100 100 100 100 100 100 100 100 100 100 100 100 100 100 100 100 37 5 5 9 5 5 5 5 13 12 5 8 5 0 2 5 90 31 0 0 0 0 0
100 100 100 100 100 100 100 100 100 100 100 100 100 100 100 100 100 99 69 100 100 100 100 29 5 30 21 33 52 21 70 62 37 4 1 0 55 99 89 5 0 0 0 0 0
100 100 100 100 100 100 100 100 100 100 100 96 85 100 100 100 100 100 99 95 100 100 59 5 5 26 17 40 13 5 7 4 4 5 13 3 100 5 100 16 1 0 0 0 0
100 100 100 100 100 100 100 100 100 100 100 100 86 92 100 98 100 100 90 68 96 41 5 18 13 6 5 5 5 5 5 2 5 31 23 78 20 53 58 3 0 0 10 30 5
100 100 100 100 100 100 100 100 100 100 100 100 100 100 100 100 100 95 93 52 50 63 5 5 16 5 5 5 5 5 4 5 5 95 67 92 26 50 6 3 0 0 1 30 49
100 100 100 100 100 100 100 100 100 100 100 100 100 100 100 94 90 100 88 100 42 49 14 5 5 5 5 5 3 5 4 5 100 68 100 10 5 0 0 0 5 5 5 5 44
100 100 100 100 100 100 100 100 100 100 100 100 100 100 100 100 92 87 100 88 78 89 16 17 5 5 5 5 0 0 5 100 41 100 90 12 1 0 0 0 0 4 3 31 100
100 100 100 100 100 100 100 100 100 100 100 100 100 100 95 100 100 78 100 100 83 79 46 5 5 5 5 4 0 0 70 88 84 100 2 0 0 0 0 0 0 0 2 4 9
100 100 100 100 100 100 100 100 100 100 100 100 100 100 100 100 100 100 100 71 66 100 98 70 5 5 5 1 0 0 32 97 100 67 0 0 0 0 0 0 0 0 0 3 90
100 100 100 100 100 100 100 100 100 100 100 100 100 100 100 100 100 100 96 36 94 100 52 5 4 4 4 0 0 0 18 100 100 33 0 0 0 0 0 0 4 0 5 3 5
100 100 100 100 100 100 100 100 100 100 100 100 100 100 100 100 80 100 77 100 100 100 8 5 5 4 0 0 2 0 90 100 43 0 0 0 0 0 0 13 96 84 5 5 100